Flag for U.S.A. Weather past 2 weeks in Bryan – College Station, Texas, U.S.A.

44 °F

Low clouds.

Feels Like: 38 °F
Forecast: 46 / 49 °F
Wind: 12 mph from Northwest

Location: Easterwood Field

Current Time: Nov 28, 2015 at 2:17:41 PM

Latest Report: Nov 28, 2015 at 12:53 PM

Visibility: 10 mi

Pressure: 30.19 "Hg

Humidity: 93%

Dew point: 42 °F

Location of Bryan – College StationLocation

Historic Weather in Bryan – College Station — Graph


Bryan – College Station temperature yesterday

Maximum temperature yesterday: 77 °F (at 1:53 PM)
Minimum temperature yesterday: 47 °F (at 10:53 PM)
Average temperature yesterday: 65 °F

Past Weeks' High & Low Weather Summary

High78 °F (Nov 16, 2:53 PM)97% (Nov 16, 4:53 AM)30.37 "Hg (Nov 16, 4:53 AM)
Low34 °F (Nov 23, 5:53 AM)29% (Nov 23, 3:53 PM)29.54 "Hg (Nov 17, 6:53 AM)
Average60 °F73%30.09 "Hg
* Reported Nov 13 12:53 PM — Nov 28 12:53 PM, Bryan – College Station, Weather by CustomWeather, © 2015

Note: Actual official high and low records may vary slightly from our data, if they occured in-between our weather recording intervals... More about our weather records


Bryan – College Station weather history for previous 24 hours

Time TempWeatherWind HumidityBarometerVisibility
12:53 PM
Sat, Nov 28
44 °FLow clouds.12 mph93%30.19 "Hg10 mi
11:53 AM44 °FFog.8 mph93%30.22 "Hg5 mi
10:53 AM43 °FLow clouds.10 mph97%30.23 "Hg10 mi
9:53 AM43 °FLow clouds.12 mph93%30.22 "Hg10 mi
8:53 AM43 °FLight rain. Mostly cloudy.9 mph93%30.21 "Hg9 mi
7:53 AM43 °FLow clouds.12 mph93%30.20 "Hg10 mi
6:53 AM44 °FLight rain. Low clouds.10 mph93%30.19 "Hg9 mi
5:53 AM44 °FLight rain. Mostly cloudy.9 mph96%30.17 "Hg10 mi
4:53 AM44 °FLight rain. Low clouds.13 mph96%30.16 "Hg10 mi
3:53 AM45 °FLight rain. Mostly cloudy.12 mph93%30.15 "Hg10 mi
2:53 AM45 °FLight rain. Low clouds.13 mph93%30.15 "Hg8 mi
1:53 AM46 °FLight rain. Low clouds.13 mph93%30.16 "Hg10 mi
12:53 AM45 °FMostly cloudy.12 mph93%30.16 "Hg10 mi
12:02 AM46 °FLight rain. Fog.12 mph93%30.20 "Hg5 mi
10:53 PM
Fri, Nov 27
47 °FLight rain. Fog.14 mph93%30.18 "Hg6 mi
9:53 PM48 °FLight rain. Low clouds.12 mph93%30.16 "Hg7 mi
8:53 PM49 °FLight rain. Fog.10 mph93%30.17 "Hg4 mi
7:53 PM50 °FMostly cloudy.10 mph93%30.15 "Hg10 mi
6:53 PM51 °FLight rain. Low clouds.12 mph96%30.15 "Hg10 mi
5:53 PM52 °FRain. Fog.15 mph97%30.12 "Hg3 mi
5:02 PM53 °FHeavy rain. Fog.14 mph93%30.13 "Hg2 mi
3:53 PM57 °FLight rain. Low clouds.12 mph96%30.10 "Hg9 mi
3:03 PM59 °FMostly cloudy.12 mph93%30.09 "Hg10 mi
2:53 PM59 °FLight rain. Fog.14 mph93%30.08 "Hg4 mi
Weather by CustomWeather, © 2015

See weather overviewHow to use our weather pages